Hourly Weather Алькериас дель Ниньо Пердидо

Today, 9 March, Tuesday

Time Temperature Precipitation Wind Pressure Humidity
00:00 +12°C° 0 mm 2 mps 759 mmHg 75%
01:00 +11°C° 0 mm 3 mps 759 mmHg 72%
02:00 +11°C° 0 mm 3 mps 759 mmHg 70%
03:00 +11°C° 0 mm 4 mps 759 mmHg 67%
04:00 +10°C° 0 mm 4 mps 759 mmHg 67%
05:00 +10°C° 0 mm 4 mps 759 mmHg 67%
06:00 +9°C° 0 mm 3 mps 760 mmHg 67%
07:00 +10°C° 0 mm 3 mps 760 mmHg 61%
08:00 +13°C° 0 mm 2 mps 760 mmHg 55%
09:00 +14°C° 0 mm 2 mps 760 mmHg 50%
10:00 +15°C° 0 mm 2 mps 760 mmHg 47%
11:00 +16°C° 0 mm 2 mps 760 mmHg 45%
12:00 +17°C° 0 mm 2 mps 759 mmHg 42%
13:00 +17°C° 0 mm 3 mps 759 mmHg 45%
14:00 +17°C° 0 mm 3 mps 759 mmHg 47%
15:00 +17°C° 0 mm 4 mps 758 mmHg 50%
16:00 +16°C° 0 mm 3 mps 759 mmHg 56%
17:00 +14°C° 0 mm 3 mps 759 mmHg 63%
18:00 +14°C° 0 mm 2 mps 759 mmHg 70%
19:00 +13°C° 0 mm 2 mps 759 mmHg 73%
20:00 +12°C° 0 mm 1 mps 760 mmHg 76%
21:00 +12°C° 0 mm 1 mps 761 mmHg 79%
22:00 +12°C° 0 mm 1 mps 761 mmHg 79%
23:00 +11°C° 0 mm 1 mps 761 mmHg 78%

Tomorrow, 10 March, Wednesday

Time Temperature Precipitation Wind Pressure Humidity
00:00 +10°C° 0 mm 2 mps 762 mmHg 77%
01:00 +10°C° 0 mm 2 mps 762 mmHg 75%
02:00 +11°C° 0 mm 1 mps 762 mmHg 73%
03:00 +10°C° 0 mm 1 mps 762 mmHg 70%
04:00 +10°C° 0 mm 1 mps 762 mmHg 68%
05:00 +9°C° 0 mm 1 mps 762 mmHg 66%
06:00 +9°C° 0 mm 1 mps 763 mmHg 64%
07:00 +11°C° 0 mm 1 mps 763 mmHg 58%
08:00 +12°C° 0 mm 1 mps 763 mmHg 52%
09:00 +14°C° 0 mm 1 mps 764 mmHg 46%
10:00 +15°C° 0 mm 2 mps 764 mmHg 43%
11:00 +16°C° 0 mm 2 mps 764 mmHg 40%
12:00 +17°C° 0 mm 3 mps 764 mmHg 37%
13:00 +17°C° 0 mm 3 mps 763 mmHg 41%
14:00 +17°C° 0 mm 3 mps 763 mmHg 45%
15:00 +17°C° 0 mm 3 mps 763 mmHg 48%
16:00 +16°C° 0 mm 3 mps 763 mmHg 57%
17:00 +14°C° 0 mm 3 mps 763 mmHg 66%
18:00 +12°C° 0 mm 3 mps 763 mmHg 75%
19:00 +13°C° 0 mm 2 mps 764 mmHg 77%
20:00 +12°C° 0 mm 2 mps 764 mmHg 78%
21:00 +12°C° 0 mm 2 mps 765 mmHg 79%
22:00 +12°C° 0 mm 2 mps 765 mmHg 75%
23:00 +12°C° 0 mm 2 mps 765 mmHg 70%

Day after tomorrow, 11 March, Thursday

Time Temperature Precipitation Wind Pressure Humidity
00:00 +12°C° 0 mm 2 mps 765 mmHg 66%
01:00 +12°C° 0 mm 2 mps 765 mmHg 60%
02:00 +10°C° 0 mm 2 mps 764 mmHg 55%
03:00 +10°C° 0 mm 2 mps 764 mmHg 49%
04:00 +10°C° 0 mm 2 mps 764 mmHg 47%
05:00 +10°C° 0 mm 2 mps 764 mmHg 44%
06:00 +10°C° 0 mm 2 mps 764 mmHg 41%
07:00 +13°C° 0 mm 2 mps 764 mmHg 37%
08:00 +16°C° 0 mm 2 mps 764 mmHg 33%
09:00 +18°C° 0 mm 2 mps 765 mmHg 28%
10:00 +19°C° 0 mm 2 mps 764 mmHg 28%
11:00 +20°C° 0 mm 2 mps 764 mmHg 27%
12:00 +21°C° 0 mm 2 mps 764 mmHg 26%
13:00 +23°C° 0 mm 2 mps 764 mmHg 28%
14:00 +23°C° 0 mm 2 mps 763 mmHg 29%
15:00 +22°C° 0 mm 3 mps 763 mmHg 31%
16:00 +20°C° 0 mm 2 mps 763 mmHg 37%
17:00 +18°C° 0 mm 2 mps 763 mmHg 42%
18:00 +17°C° 0 mm 2 mps 763 mmHg 48%
19:00 +16°C° 0 mm 2 mps 763 mmHg 49%
20:00 +16°C° 0 mm 2 mps 763 mmHg 50%
21:00 +16°C° 0 mm 2 mps 763 mmHg 51%
22:00 +16°C° 0 mm 2 mps 763 mmHg 53%
23:00 +16°C° 0 mm 2 mps 763 mmHg 55%

12 March, Friday

Time Temperature Precipitation Wind Pressure Humidity
00:00 +15°C° 0 mm 1 mps 763 mmHg 57%
01:00 +15°C° 0 mm 1 mps 763 mmHg 58%
02:00 +15°C° 0 mm 1 mps 762 mmHg 59%
03:00 +15°C° 0 mm 1 mps 762 mmHg 60%
04:00 +14°C° 0 mm 1 mps 762 mmHg 61%
05:00 +14°C° 0 mm 1 mps 762 mmHg 61%
06:00 +14°C° 0 mm 1 mps 762 mmHg 62%
07:00 +16°C° 0 mm 1 mps 762 mmHg 56%
08:00 +19°C° 0 mm 1 mps 762 mmHg 51%
09:00 +21°C° 0 mm 1 mps 762 mmHg 45%
10:00 +22°C° 0 mm 1 mps 762 mmHg 43%
11:00 +22°C° 0 mm 1 mps 762 mmHg 40%
12:00 +23°C° 0 mm 2 mps 761 mmHg 38%
13:00 +23°C° 0 mm 2 mps 761 mmHg 40%
14:00 +21°C° 0 mm 3 mps 761 mmHg 41%
15:00 +21°C° 0 mm 3 mps 760 mmHg 43%
16:00 +20°C° 0 mm 3 mps 760 mmHg 48%
17:00 +19°C° 0 mm 3 mps 761 mmHg 52%
18:00 +17°C° 0 mm 4 mps 761 mmHg 57%
19:00 +15°C° 0 mm 4 mps 762 mmHg 61%
20:00 +14°C° 0 mm 5 mps 762 mmHg 64%
21:00 +14°C° 0 mm 6 mps 763 mmHg 68%
22:00 +13°C° 0 mm 5 mps 763 mmHg 72%
23:00 +12°C° 0 mm 4 mps 764 mmHg 76%

13 March, Saturday

Time Temperature Precipitation Wind Pressure Humidity
00:00 +11°C° 0 mm 3 mps 764 mmHg 79%
01:00 +11°C° 0 mm 3 mps 764 mmHg 80%
02:00 +12°C° 0 mm 2 mps 764 mmHg 80%
03:00 +12°C° 0 mm 1 mps 764 mmHg 80%
04:00 +12°C° 0 mm 1 mps 764 mmHg 80%
05:00 +12°C° 0 mm 1 mps 764 mmHg 80%
06:00 +12°C° 0 mm 1 mps 764 mmHg 80%
07:00 +13°C° 0 mm 1 mps 764 mmHg 76%
08:00 +14°C° 0 mm 1 mps 764 mmHg 73%
09:00 +15°C° 0 mm 1 mps 764 mmHg 70%
10:00 +16°C° 0 mm 2 mps 764 mmHg 65%
11:00 +17°C° 0 mm 3 mps 763 mmHg 61%
12:00 +18°C° 0 mm 4 mps 763 mmHg 57%
13:00 +18°C° 0 mm 4 mps 762 mmHg 57%
14:00 +17°C° 0 mm 5 mps 762 mmHg 57%
15:00 +17°C° 0 mm 5 mps 761 mmHg 57%
16:00 +16°C° 0 mm 5 mps 761 mmHg 64%
17:00 +15°C° 0 mm 4 mps 761 mmHg 72%
18:00 +14°C° 0 mm 3 mps 760 mmHg 80%
19:00 +13°C° 0 mm 3 mps 761 mmHg 81%
20:00 +13°C° 0 mm 2 mps 761 mmHg 83%
21:00 +13°C° 0 mm 1 mps 762 mmHg 84%
22:00 +13°C° 0 mm 2 mps 762 mmHg 80%
23:00 +13°C° 0 mm 2 mps 762 mmHg 76%

14 March, Sunday

Time Temperature Precipitation Wind Pressure Humidity
00:00 +13°C° 0 mm 2 mps 762 mmHg 72%
01:00 +11°C° 0 mm 3 mps 762 mmHg 68%
02:00 +11°C° 0 mm 3 mps 762 mmHg 63%
03:00 +11°C° 0 mm 3 mps 762 mmHg 59%
04:00 +11°C° 0 mm 3 mps 762 mmHg 58%
05:00 +10°C° 0 mm 3 mps 762 mmHg 57%
06:00 +10°C° 0 mm 3 mps 763 mmHg 56%
07:00 +12°C° 0 mm 3 mps 763 mmHg 51%
08:00 +14°C° 0 mm 3 mps 763 mmHg 46%
09:00 +16°C° 0 mm 2 mps 763 mmHg 42%
10:00 +17°C° 0 mm 3 mps 763 mmHg 39%
11:00 +19°C° 0 mm 3 mps 763 mmHg 37%
12:00 +20°C° 0 mm 4 mps 763 mmHg 34%
13:00 +20°C° 0 mm 4 mps 763 mmHg 34%
14:00 +20°C° 0 mm 4 mps 762 mmHg 34%
15:00 +21°C° 0 mm 5 mps 762 mmHg 35%
16:00 +19°C° 0 mm 5 mps 762 mmHg 38%
17:00 +17°C° 0 mm 5 mps 762 mmHg 42%
18:00 +16°C° 0 mm 5 mps 762 mmHg 46%
19:00 +15°C° 0 mm 4 mps 763 mmHg 49%
20:00 +14°C° 0 mm 4 mps 764 mmHg 53%
21:00 +13°C° 0 mm 3 mps 765 mmHg 57%
22:00 +13°C° 0 mm 3 mps 765 mmHg 58%
23:00 +12°C° 0 mm 3 mps 765 mmHg 59%
Show more